Location: Kalberh�ni
(46.4610°N, 7.2453°E)
Time: 05:28:05
(UTC+00:00)

Cosmos 2333 Rocket - Pass Details

Date: 30 October 2021
Orbit: 837 x 865 km, 70.8° (Epoch: 05 December)

Event Time Altitude Azimuth Distance (km) Brightness Sun altitude
Exits shadow 04:03:59 40° 230° (SW) 1,262 2.7 -22.1°
Drops below altitude 10° 04:08:31 10° 184° (S) 2,498 4.6 -21.3°
Sets 04:11:04 0° 177° (S) 3,430 5.4 -20.9°
